Weather observations for the past three days for
Montgomery, Orange County Airport
Imperial (Metric)
Date Time (edt) Wind (mph) Vis. (mi.) Weather Sky Cond. Temperature (ºF) Relative Humidity Wind Chill (°F) Heat Index (°F) Pressure Precipitation (in)
Air Dwpt 6 hour altimeter (in) sea level (mb) 1 hr 3 hr 6 hr
Max. Min.
25 13:54 Calm 10.00 Fair CLR 84.9 51.1 84.9 66.9 31% 83 29.87 1011.2
25 12:54 W 6 10.00 Fair CLR 84 52 33% 82 29.88 1011.7
25 11:54 W 10 10.00 Fair CLR 82.9 55 38% 82 29.91 1012.5
25 10:54 Vrbl 6 10.00 Fair CLR 82.9 57 41% 82 29.91 1012.7
25 09:54 NW 8 10.00 Fair CLR 79 57 47% 80 29.92 1012.8
25 08:54 W 7 10.00 Fair CLR 73.9 57 56% 29.91 1012.6
25 07:54 S 9 10.00 Fair CLR 66.9 55.9 68 55.9 68% 29.9 1012.5
25 06:54 Calm 10.00 Fair CLR 63 55 76% 29.9 1012.3
25 05:54 SW 7 10.00 Fair CLR 57.9 52 81% 29.9 1012.3
25 04:54 S 5 10.00 Fair CLR 57 53.1 87% 29.89 1011.9
25 03:54 SW 7 10.00 Fair CLR 57 53.1 87% 29.87 1011.4
25 02:54 W 5 10.00 Fair CLR 64 52 65% 29.84 1010.4
25 01:54 NW 10 10.00 Fair CLR 66 53.1 71.1 66 63% 29.84 1010.2
25 00:54 NW 9 10.00 A Few Clouds FEW080 66.9 54 63% 29.83 1010.0
24 22:54 NW 12 10.00 Fair CLR 68 55.9 65% 29.81 1009.1
24 21:54 NW 10 10.00 A Few Clouds FEW100 69.1 55.9 63% 29.8 1008.9
24 20:54 NW 10 G 23 10.00 Overcast OVC090 70 54 57% 29.78 1008.1
24 19:54 NW 9 G 22 10.00 Overcast OVC070 71.1 51.1 73.9 68 49% 29.75 1007.0
24 18:54 N 17 G 25 10.00 Overcast OVC055 69.1 51.1 53% 29.74 1007.0
24 17:54 NW 14 G 33 10.00 Overcast FEW043 BKN055 OVC065 69.1 54 59% 29.71 1005.9
24 16:54 NW 20 G 31 10.00 Overcast SCT041 BKN050 OVC095 68 55 63% 29.69 1005.0
24 15:54 NW 18 G 37 10.00 Mostly Cloudy SCT041 BKN100 73 55.9 55% 29.66 1004.1
24 14:54 W 16 G 26 10.00 Partly Cloudy SCT045 SCT055 73 57 57% 29.65 1003.8
24 13:54 W 18 G 30 10.00 Mostly Cloudy FEW043 FEW050 BKN060 73 55.9 73.9 71.1 55% 29.63 1003.1
24 12:54 NW 12 G 26 10.00 Overcast SCT050 OVC060 72 55 55% 29.64 1003.3
24 11:54 W 16 G 28 10.00 Mostly Cloudy BKN050 BKN060 72 54 53% 29.63 1003.2
24 10:54 W 10 G 26 10.00 Mostly Cloudy FEW049 BKN060 73 55.9 55% 29.62 1002.9
24 09:54 W 16 G 28 10.00 Mostly Cloudy BKN050 72 54 53% 29.62 1002.8
24 08:54 W 13 G 26 10.00 Mostly Cloudy BKN050 72 55 55% 29.62 1002.7
24 07:54 W 13 G 24 10.00 Fair CLR 71.1 55 75.9 66.9 57% 29.62 1002.8
24 06:54 NW 8 10.00 Fair CLR 71.1 60.1 68% 29.6 1002.1
24 05:54 W 10 G 17 10.00 Fair CLR 70 60.1 71% 29.58 1001.3
24 04:54 W 7 10.00 A Few Clouds FEW036 71.1 62.1 73% 29.58 1001.1
24 03:54 W 12 G 21 10.00 Partly Cloudy SCT095 73.9 62.1 67% 29.56 1000.5
24 02:54 W 8 10.00 Fair CLR 75 64.9 71% 77 29.54 1000.1
24 01:54 SW 10 G 22 10.00 Mostly Cloudy SCT070 BKN095 BKN110 75.9 66.9 75.9 71.1 74% 77 29.54 1000.1
24 00:54 SW 3 10.00 Mostly Cloudy SCT070 BKN095 73 68 84% 29.55 1000.3
23 23:54 SW 3 10.00 Overcast FEW065 OVC085 73 69.1 87% 29.55 1000.4
23 22:54 Calm 8.00 Mostly Cloudy BKN080 BKN090 71.1 70 96% 29.55 1000.4
23 21:54 Calm 10.00 Fair CLR 73 71.1 94% 29.54 1000.2
23 20:54 S 3 10.00 Fair CLR 73 71.1 94% 29.55 1000.3
23 19:54 S 6 10.00 A Few Clouds FEW100 75 71.1 88 75 88% 75 29.55 1000.5 0.09
23 18:54 S 8 10.00 Mostly Cloudy SCT046 SCT065 BKN080 75 72 90% 74 29.58 1001.2 0.09
23 17:54 SW 9 10.00 A Few Clouds FEW070 86 71.1 61% 92 29.55 1000.4
23 16:54 SW 15 G 25 10.00 A Few Clouds FEW065 87.1 70 57% 92 29.56 1000.5
23 15:54 SW 13 G 23 10.00 Thunderstorm in Vicinity FEW055 SCT070 BKN085 87.1 72 61% 94 29.6 1001.9
23 14:54 SW 14 G 21 10.00 A Few Clouds FEW110 87.1 73.9 65% 95 29.62 1002.5
23 13:54 SW 14 G 25 10.00 Fair CLR 87.1 72 88 72 61% 94 29.64 1003.3
23 12:54 SW 13 G 23 10.00 Fair CLR 86 73 65% 93 29.67 1004.2
23 11:54 SW 10 10.00 Partly Cloudy SCT100 84 73 70% 90 29.7 1005.3
23 10:54 SW 8 10.00 A Few Clouds FEW110 82 73.9 77% 88 29.72 1006.0
23 09:54 Vrbl 5 10.00 Partly Cloudy SCT110 77 72 85% 78 29.75 1007.0
23 08:54 Calm 8.00 Partly Cloudy SCT007 SCT110 73.9 71.1 91% 29.78 1008.1
23 07:54 Calm 7.00 Mostly Cloudy FEW006 BKN100 72 69.1 72 69.1 91% 29.8 1008.7 0.02
23 06:54 Calm 6.00 Fog/Mist BKN100 71.1 69.1 94% 29.8 1008.8
23 05:54 Calm 3.00 Fog/Mist BKN095 70 69.1 97% 29.82 1009.4
23 04:54 Calm 2.50 Fog/Mist SCT100 69.1 68 96% 29.83 1009.7 0.02
23 03:54 Calm 4.00 Fog/Mist CLR 70 69.1 97% 29.84 1010.0
23 02:54 Calm 8.00 Mostly Cloudy BKN005 70 69.1 97% 29.88 1011.4 0.02
23 01:54 W 5 8.00 Mostly Cloudy FEW008 SCT050 BKN090 70 69.1 80.1 70 97% 29.92 1012.9 0.02 0.24
23 00:54 N 3 10.00 Partly Cloudy FEW044 SCT095 SCT110 70 68 93% 29.92 1012.7 0.09
22 23:54 Calm 3.00 Thunderstorm in Vicinity Rain Fog/Mist SCT049 OVC065 73 69.1 87% 29.94 1013.7 0.13
22 22:54 SW 5 10.00 Fair CLR 73.9 69.1 85% 29.93 1013.2
22 21:54 SW 5 10.00 Fair CLR 75.9 69.1 79% 77 29.94 1013.5
22 20:54 Calm 10.00 A Few Clouds FEW110 78.1 70 76% 80 29.93 1013.1
22 19:54 E 8 10.00 Fair CLR 80.1 70 87.1 80.1 71% 83 29.92 1012.9 0.02
22 18:54 Calm 10.00 Fair CLR 84.9 72 65% 91 29.9 1012.2
22 17:54 SW 12 10.00 Fair CLR 86 73 65% 93 29.89 1011.9
22 15:54 SW 8 10.00 Thunderstorm in Vicinity CLR 84.9 73 68% 92 29.92 1013.1 0.02
22 14:54 S 6 10.00 Thunderstorm in Vicinity FEW065 SCT090 84.9 70 61% 89 29.93 1013.4
Date Time (edt) Wind (mph) Vis. (mi.) Weather Sky Cond. Air Dwpt Max. Min. Relative Humidity Wind Chill (°F) Heat Index (°F) altimeter (in) sea level (mb) 1 hr 3 hr 6 hr
6 hour
Temperature (ºF) Pressure Precipitation (in)